• In Österreich
  • Länderverzeichnis
  • Für 7 Tage
  • Wassertemperatur
  • Satellitenkarten
  • Wetterkarte
  • News
  • Widgets
  • user-avatar
    Anmelden

    Stündliche Wetter Chyzhychi

    Heute, 15 Oktober, Montag

    Zeit Temperatur Niederschläge Wind Luftdruck Luftfeuchtigkeit
    00:00 +9°C° 0 mm 3 m/S 741 mmHg 56%
    01:00 +9°C° 0 mm 3 m/S 741 mmHg 57%
    02:00 +8°C° 0 mm 2 m/S 741 mmHg 61%
    03:00 +8°C° 0 mm 2 m/S 740 mmHg 62%
    04:00 +7°C° 0 mm 2 m/S 740 mmHg 63%
    05:00 +7°C° 0 mm 2 m/S 740 mmHg 65%
    06:00 +8°C° 0 mm 2 m/S 740 mmHg 64%
    07:00 +8°C° 0 mm 3 m/S 741 mmHg 64%
    08:00 +8°C° 0 mm 3 m/S 741 mmHg 64%
    09:00 +11°C° 0 mm 3 m/S 741 mmHg 59%
    10:00 +13°C° 0 mm 3 m/S 741 mmHg 54%
    11:00 +16°C° 0 mm 3 m/S 741 mmHg 48%
    12:00 +17°C° 0 mm 4 m/S 741 mmHg 47%
    13:00 +18°C° 0 mm 4 m/S 740 mmHg 45%
    14:00 +19°C° 0 mm 4 m/S 740 mmHg 43%
    15:00 +18°C° 0 mm 4 m/S 740 mmHg 47%
    16:00 +17°C° 0 mm 3 m/S 740 mmHg 52%
    17:00 +16°C° 0 mm 3 m/S 739 mmHg 56%
    18:00 +14°C° 0 mm 3 m/S 739 mmHg 57%
    19:00 +13°C° 0 mm 3 m/S 739 mmHg 57%
    20:00 +12°C° 0 mm 3 m/S 739 mmHg 58%
    21:00 +11°C° 0 mm 3 m/S 739 mmHg 57%
    22:00 +11°C° 0 mm 3 m/S 739 mmHg 56%
    23:00 +11°C° 0 mm 3 m/S 739 mmHg 56%

    Morgen, 16 Oktober, Dienstag

    Zeit Temperatur Niederschläge Wind Luftdruck Luftfeuchtigkeit
    00:00 +10°C° 0 mm 3 m/S 739 mmHg 56%
    01:00 +10°C° 0 mm 3 m/S 739 mmHg 56%
    02:00 +10°C° 0 mm 3 m/S 739 mmHg 57%
    03:00 +9°C° 0 mm 2 m/S 739 mmHg 58%
    04:00 +9°C° 0 mm 2 m/S 739 mmHg 59%
    05:00 +9°C° 0 mm 2 m/S 739 mmHg 60%
    06:00 +9°C° 0 mm 2 m/S 739 mmHg 60%
    07:00 +9°C° 0 mm 2 m/S 739 mmHg 61%
    08:00 +10°C° 0 mm 2 m/S 739 mmHg 62%
    09:00 +13°C° 0 mm 2 m/S 739 mmHg 56%
    10:00 +15°C° 0 mm 2 m/S 739 mmHg 51%
    11:00 +18°C° 0 mm 3 m/S 740 mmHg 45%
    12:00 +19°C° 0 mm 3 m/S 739 mmHg 44%
    13:00 +20°C° 0 mm 2 m/S 739 mmHg 43%
    14:00 +20°C° 0 mm 2 m/S 739 mmHg 41%
    15:00 +19°C° 0 mm 2 m/S 739 mmHg 47%
    16:00 +18°C° 0 mm 2 m/S 739 mmHg 54%
    17:00 +16°C° 0 mm 2 m/S 739 mmHg 60%
    18:00 +15°C° 0 mm 2 m/S 739 mmHg 62%
    19:00 +14°C° 0 mm 2 m/S 739 mmHg 64%
    20:00 +13°C° 0 mm 2 m/S 739 mmHg 66%
    21:00 +13°C° 0 mm 2 m/S 739 mmHg 67%
    22:00 +12°C° 0 mm 2 m/S 739 mmHg 68%
    23:00 +12°C° 0 mm 2 m/S 739 mmHg 69%

    übermorgen, 17 Oktober, Mittwoch

    Zeit Temperatur Niederschläge Wind Luftdruck Luftfeuchtigkeit
    00:00 +10°C° 0 mm 2 m/S 739 mmHg 70%
    01:00 +10°C° 0 mm 2 m/S 739 mmHg 71%
    02:00 +10°C° 0 mm 2 m/S 739 mmHg 71%
    03:00 +10°C° 0 mm 2 m/S 739 mmHg 72%
    04:00 +10°C° 0 mm 1 m/S 738 mmHg 73%
    05:00 +10°C° 0 mm 1 m/S 738 mmHg 74%
    06:00 +10°C° 0 mm 1 m/S 739 mmHg 73%
    07:00 +10°C° 0 mm 2 m/S 739 mmHg 72%
    08:00 +10°C° 0 mm 2 m/S 739 mmHg 72%
    09:00 +13°C° 0 mm 2 m/S 739 mmHg 65%
    10:00 +16°C° 0 mm 2 m/S 739 mmHg 59%
    11:00 +18°C° 0 mm 3 m/S 739 mmHg 52%
    12:00 +19°C° 0 mm 3 m/S 739 mmHg 51%
    13:00 +20°C° 0 mm 3 m/S 739 mmHg 49%
    14:00 +21°C° 0 mm 3 m/S 738 mmHg 48%
    15:00 +20°C° 0 mm 3 m/S 738 mmHg 54%
    16:00 +19°C° 0 mm 2 m/S 738 mmHg 60%
    17:00 +17°C° 0 mm 2 m/S 737 mmHg 66%
    18:00 +16°C° 0 mm 2 m/S 737 mmHg 69%
    19:00 +15°C° 0 mm 2 m/S 738 mmHg 72%
    20:00 +13°C° 0 mm 3 m/S 738 mmHg 75%
    21:00 +12°C° 0 mm 3 m/S 738 mmHg 75%
    22:00 +12°C° 0 mm 3 m/S 738 mmHg 75%
    23:00 +12°C° 0 mm 2 m/S 738 mmHg 76%

    18 Oktober, Donnerstag

    Zeit Temperatur Niederschläge Wind Luftdruck Luftfeuchtigkeit
    00:00 +12°C° 0 mm 2 m/S 737 mmHg 76%
    01:00 +12°C° 0 mm 2 m/S 737 mmHg 77%
    02:00 +10°C° 0 mm 2 m/S 737 mmHg 77%
    03:00 +10°C° 0 mm 2 m/S 737 mmHg 78%
    04:00 +10°C° 0 mm 2 m/S 737 mmHg 78%
    05:00 +10°C° 0 mm 2 m/S 737 mmHg 79%
    06:00 +10°C° 0 mm 2 m/S 737 mmHg 78%
    07:00 +10°C° 0 mm 2 m/S 737 mmHg 77%
    08:00 +10°C° 0 mm 2 m/S 737 mmHg 77%
    09:00 +14°C° 0 mm 2 m/S 737 mmHg 70%
    10:00 +16°C° 0 mm 3 m/S 737 mmHg 63%
    11:00 +18°C° 0 mm 3 m/S 737 mmHg 56%
    12:00 +19°C° 0 mm 3 m/S 737 mmHg 54%
    13:00 +20°C° 0 mm 3 m/S 737 mmHg 51%
    14:00 +21°C° 0 mm 3 m/S 736 mmHg 49%
    15:00 +19°C° 0 mm 2 m/S 736 mmHg 54%
    16:00 +18°C° 0 mm 2 m/S 736 mmHg 59%
    17:00 +17°C° 0 mm 2 m/S 736 mmHg 64%
    18:00 +16°C° 0 mm 2 m/S 736 mmHg 66%
    19:00 +14°C° 0 mm 2 m/S 736 mmHg 68%
    20:00 +13°C° 0 mm 1 m/S 736 mmHg 71%
    21:00 +13°C° 0 mm 1 m/S 736 mmHg 72%
    22:00 +12°C° 0 mm 1 m/S 736 mmHg 72%
    23:00 +12°C° 0 mm 1 m/S 736 mmHg 73%

    19 Oktober, Freitag

    Zeit Temperatur Niederschläge Wind Luftdruck Luftfeuchtigkeit
    00:00 +12°C° 0 mm 1 m/S 736 mmHg 73%
    01:00 +11°C° 0 mm 1 m/S 736 mmHg 74%
    02:00 +11°C° 0 mm 1 m/S 736 mmHg 74%
    03:00 +11°C° 0 mm 1 m/S 736 mmHg 75%
    04:00 +9°C° 0 mm 0 m/S 736 mmHg 76%
    05:00 +9°C° 0 mm 0 m/S 736 mmHg 76%
    06:00 +10°C° 0 mm 0 m/S 736 mmHg 76%
    07:00 +10°C° 0 mm 0 m/S 736 mmHg 75%
    08:00 +10°C° 0 mm 0 m/S 736 mmHg 74%
    09:00 +13°C° 0 mm 1 m/S 736 mmHg 68%
    10:00 +15°C° 0 mm 1 m/S 736 mmHg 63%
    11:00 +18°C° 0 mm 1 m/S 736 mmHg 57%
    12:00 +18°C° 0 mm 1 m/S 736 mmHg 55%
    13:00 +19°C° 0 mm 1 m/S 736 mmHg 53%
    14:00 +19°C° 0 mm 2 m/S 736 mmHg 51%
    15:00 +18°C° 0 mm 2 m/S 736 mmHg 56%
    16:00 +18°C° 0 mm 1 m/S 736 mmHg 61%
    17:00 +16°C° 0 mm 1 m/S 736 mmHg 67%
    18:00 +15°C° 0 mm 1 m/S 736 mmHg 71%
    19:00 +14°C° 0 mm 1 m/S 736 mmHg 75%
    20:00 +13°C° 0 mm 1 m/S 736 mmHg 79%
    21:00 +12°C° 0 mm 1 m/S 736 mmHg 81%
    22:00 +12°C° 0 mm 1 m/S 736 mmHg 83%
    23:00 +11°C° 0 mm 1 m/S 736 mmHg 84%

    20 Oktober, Samstag

    Zeit Temperatur Niederschläge Wind Luftdruck Luftfeuchtigkeit
    00:00 +10°C° 0 mm 2 m/S 736 mmHg 86%
    01:00 +10°C° 0 mm 2 m/S 736 mmHg 87%
    02:00 +9°C° 0 mm 2 m/S 736 mmHg 88%
    03:00 +9°C° 0 mm 2 m/S 736 mmHg 89%
    04:00 +9°C° 0 mm 2 m/S 736 mmHg 90%
    05:00 +8°C° 0 mm 2 m/S 736 mmHg 92%
    06:00 +9°C° 0 mm 2 m/S 737 mmHg 91%
    07:00 +9°C° 0 mm 2 m/S 737 mmHg 90%
    08:00 +9°C° 0 mm 2 m/S 737 mmHg 90%
    09:00 +11°C° 0 mm 3 m/S 737 mmHg 83%
    10:00 +12°C° 0 mm 3 m/S 737 mmHg 76%
    11:00 +14°C° 0 mm 3 m/S 738 mmHg 70%
    12:00 +14°C° 0 mm 4 m/S 737 mmHg 68%
    13:00 +15°C° 0 mm 4 m/S 737 mmHg 67%
    14:00 +17°C° 0 mm 4 m/S 737 mmHg 66%
    15:00 +16°C° 0.1 mm 3 m/S 737 mmHg 71%
    16:00 +14°C° 0.1 mm 3 m/S 737 mmHg 75%
    17:00 +13°C° 0.1 mm 3 m/S 737 mmHg 80%
    18:00 +12°C° 0.1 mm 3 m/S 738 mmHg 83%
    19:00 +11°C° 0.1 mm 3 m/S 738 mmHg 86%
    20:00 +11°C° 0.1 mm 3 m/S 738 mmHg 88%
    21:00 +11°C° 0.1 mm 3 m/S 739 mmHg 87%
    22:00 +10°C° 0.1 mm 3 m/S 739 mmHg 86%
    23:00 +10°C° 0.1 mm 3 m/S 739 mmHg 85%
    Mehr zeigen